Regional Weather Roundup
Issued by NWS Newport/Morehead, NC

Current Version | Previous Version | Graphics & Text | Print | Product List | Glossary Off
Versions: 1 2 3 4 5 6 7 8 9 10 11 12 13 14 15 16 17 18 19 20 21 22 23 24 25 26 27 28 29 30 31 32 33 34 35 36 37 38 39 40 41 42 43 44 45 46 47 48 49 50
000 ASUS42 KMHX 200414 RWRMHX WEATHER ROUNDUP FOR EASTERN NORTH CAROLINA NATIONAL WEATHER SERVICE NEWPORT/MOREHEAD CITY NC 1200 AM EDT SUN MAY 20 2018 NOTE: "FAIR" INDICATES FEW OR NO CLOUDS BELOW 12,000 FEET WITH NO SIGNIFICANT WEATHER AND/OR OBSTRUCTIONS TO VISIBILITY NCZ015>017-031-032-045>047-102-103-200500- NORTH COAST CITY SKY/WX TMP DP RH WIND PRES REMARKS EDENTON NOT AVBL ELIZABETH CITY MOCLDY 74 72 93 S8 30.15S KITTY HAWK MOCLDY 74 69 81 S5 30.16R MANTEO FAIR 75 70 84 SW22 30.17R $$ NCZ045>047-081-094-103-104-200500- CENTRAL COAST CITY SKY/WX TMP DP RH WIND PRES REMARKS FRISCO MOCLDY 74 70 87 S13 30.18S $$ NCZ095-097-098-100-101-200500- SOUTHERN COAST CITY SKY/WX TMP DP RH WIND PRES REMARKS BEAUFORT MOCLDY 75 71 87 S14 30.17R CEDAR ISLAND NOT AVBL JACKSONVILLE MOCLDY 75 72 90 S12 30.16R PINEY ISLAND NOT AVBL WILMINGTON MOCLDY 74 71 91 S7 30.16R $$ NCZ011>013-027>030-043-044-078>080-089-090>093-098-200500- COASTAL PLAIN CITY SKY/WX TMP DP RH WIND PRES REMARKS AHOSKIE CLOUDY 69 69 100 S3 30.15R CLINTON MOCLDY 69 69 100 CALM 30.15S ELIZABETHTOWN MOCLDY 69 68 97 SW3 30.15R GOLDSBORO FAIR N/A N/A N/A S5 30.14R GREENVILLE CLOUDY 72 72 100 S6 30.16S HAVELOCK NOT AVBL KENANSVILLE CLOUDY 70 70 100 CALM 30.16R FOG KINSTON RAIN 72 70 95 S10 30.16R NEW BERN CLOUDY 73 71 93 S8 30.17R RICHLANDS CLOUDY 73 71 93 S10 30.16R ROCKY MOUNT CLOUDY 70 69 97 S6 30.15R WASHINGTON MOCLDY 73 71 94 CALM 30.16R WHITEVILLE FAIR 70 69 97 CALM 30.14S $$ AMZ130-135-150-152-154-156-158-170-250-252-270-ANZ085-086-088-633-658-670-200500- MARINE OBSERVATIONS STATION/POSITION TIME TEMP WIND PRES WAVE SWELL AIR SEA DIR/SP/G HT/PER HT/PER (UTC) (F) (DEG/KT/KT) (MB) (FT/S) (FT/S) CHESAPEAKE LIGHT NOT AVBL 64 E VA BEACH 0350 66 62 190/ 14/ 16 1021.8 5/ 7 3/ 7 DUCK 0342 75 62 190/ 15/ 20 1020.7 2 E DUCK 0330 63 N/A 5/ 7 OREGON INLET 0342 76 76 180/ 19/ 22 1021.5 13E OREGON INLT 0348 64 N/A 5/ 7 2/14 HATTERAS CG 0342 75 74 180/ 11/ 15 1021.6 DIAMOND BUOY 0350 77 75 190/ 21/ 25 1022.1 6/ 8 3/ 8 CAPE LOOKOUT 0400 180/ 18/ 19 1021.8 BEAUFORT LAB 0342 75 76 180/ 17/ 19 1021.6 30 SE NEW RVR IN 0308 77 180/ 17/ 23 1020.9 30 SE NEW RVR IN 0400 76 N/A 8/ 8 2/11 27 SE WRIGHTSVLE 0308 75 73 170/ 17/ 23 1021.0 5 SE WRIGHTSVLE NOT AVBL 225 S CAPE HAT 0350 76 150/ 16/ 21 1023.6 6/ 8 3/ 8 41 SE CHARLESTON 0350 74 210/ 14/ 17 1020.1 8/ 8 7/ 8 $$

USA.gov is the U.S. government's official web portal to all federal, state and local government web resources and services.